This demonstration page uses our WeatherBlox Daily Observations layout. Learn more.

Left ArrowRight Arrow

Hourly Observations for September 17, 2021

Temp ( °F °C ) Dew Point ( °F °C ) Humidity (%) Winds ( mph kmh ) Pressure ( in mb ) Visibility ( mi km ) Precip ( " mm )
12:52 am 00:52 Clear 76 24.4 67 19.4 74 74 S 15 24 29.85 1011 10 16 0.00 0.00
1:52 am 01:52 Mostly Clear 75 23.9 67 19.4 76 76 S 12 19 29.87 1012 10 16 0.00 0.00
2:52 am 02:52 Mostly Clear 74 23.3 67 19.4 79 79 S 13 20 29.87 1012 10 16 0.00 0.00
3:52 am 03:52 Mostly Cloudy 73 22.8 67 19.4 81 81 N 7 11 29.90 1013 10 16 0.00 0.00
4:52 am 04:52 Mostly Cloudy 72 22.2 66 18.9 82 82 Calm 29.92 1013 10 16 0.00 0.00
5:52 am 05:52 Mostly Cloudy 73 22.8 66 18.9 79 79 Calm 29.95 1014 10 16 0.00 0.00
6:44 am 06:44 Cloudy with Light Rain 71 21.7 63 17.2 76 76 NNW 25 41 30.01 1016 10 16 0.00 0.00
6:52 am 06:52 Cloudy with Light Rain 70 21.1 62 16.7 76 76 NNW 21 33 30.02 1017 10 16 0.00 0.00
7:12 am 07:12 Cloudy 69 20.6 61 16.1 76 76 N 20 31 30.03 1017 10 16 0.00 0.00
7:52 am 07:52 Mostly Cloudy 69 20.6 62 16.7 78 78 NNE 10 17 30.04 1017 10 16 0.00 0.00
8:52 am 08:52 Mostly Cloudy 73 22.8 62 16.7 69 69 NE 10 17 30.03 1017 10 16 0.00 0.00
9:52 am 09:52 Mostly Cloudy 69 20.6 62 16.7 78 78 NNW 21 33 30.11 1020 10 16 0.00 0.00
10:04 am 10:04 Mostly Cloudy 64 17.8 60 15.6 87 87 NW 22 35 30.13 1020 10 16 0.00 0.00
10:49 am 10:49 Mostly Cloudy 64 18 61 16 88 88 N 15 24 30.13 1020 10 16 0.00 0.00
10:52 am 10:52 Mostly Cloudy 65 18.3 60 15.6 84 84 N 16 26 30.12 1020 10 16 0.00 0.00
11:30 am 11:30 Mostly Cloudy 66 18.9 60 15.6 81 81 N 16 26 30.14 1021 10 16 0.00 0.00
11:52 am 11:52 Mostly Cloudy 68 20 60 15.6 76 76 N 20 31 30.12 1020 10 16 0.00 0.00
12:52 pm 12:52 Mostly Cloudy 72 22.2 60 15.6 66 66 N 12 19 30.14 1021 10 16 0.00 0.00
1:52 pm 13:52 Mostly Cloudy 75 23.9 60 15.6 60 60 N 9 15 30.15 1021 10 16 0.00 0.00
2:52 pm 14:52 Mostly Cloudy 75 23.9 58 14.4 55 55 NNE 14 22 30.14 1021 10 16 0.00 0.00
3:52 pm 15:52 Mostly Cloudy 74 23.3 58 14.4 57 57 NNE 12 19 30.13 1020 10 16 0.00 0.00
4:52 pm 16:52 Mostly Cloudy 76 24.4 57 13.9 52 52 N 13 20 30.12 1020 10 16 0.00 0.00
5:52 pm 17:52 Mostly Cloudy 74 23.3 54 12.2 50 50 N 12 19 30.13 1020 10 16 0.00 0.00
6:52 pm 18:52 Mostly Cloudy 71 21.7 52 11.1 51 51 N 8 13 30.15 1021 10 16 0.00 0.00
7:52 pm 19:52 Mostly Cloudy 66 18.9 52 11.1 61 61 N 7 11 30.16 1021 10 16 0.00 0.00
8:52 pm 20:52 Mostly Cloudy 63 17.2 52 11.1 68 68 N 7 11 30.17 1022 10 16 0.00 0.00
9:52 pm 21:52 Mostly Cloudy 63 17.2 52 11.1 68 68 NW 5 7 30.19 1022 10 16 0.00 0.00
10:52 pm 22:52 Mostly Cloudy 62 16.7 51 10.6 67 67 NNW 3 6 30.18 1022 10 16 0.00 0.00
11:52 pm 23:52 Mostly Clear 62 16.7 49 9.4 62 62 NW 5 7 30.17 1022 10 16 0.00 0.00

Powered by AerisWeather